Ames, IA

7:01 PM CDT on May 22, 2018 (GMT -0500)
Ames Municipal

Weather History for KAMW - November, 2011

Change the Weather History Date:

Saturday, November 26, 2011

  Actual Average Record
Temperature  
Mean Temperature 45 °F 31 °F  
Max Temperature 53 °F 40 °F 66 °F (1998)
Min Temperature 37 °F 22 °F 1 °F (1996)
Degree Days  
Heating Degree Days 20 34  
Month to date heating degree days 629 716  
Since 1 July heating degree days 1187 1312  
Cooling Degree Days 0 0  
Month to date cooling degree days 0 0  
Year to date cooling degree days 973 752  
Moisture  
Dew Point 40 °F    
Average Humidity 87    
Maximum Humidity 100    
Minimum Humidity 73    
Precipitation  
Precipitation 0.10 in 0.05 in 0.76 in (2015)
Month to date precipitation 3.08 1.90  
Year to date precipitation 29.26  
Sea Level Pressure  
Sea Level Pressure 29.86 in    
Wind  
Wind Speed 18 mph (WNW)    
Max Wind Speed 33 mph    
Max Gust Speed 43 mph    
Visibility 8 miles    
Events Rain    
T = Trace of Precipitation, MM = Missing Value Source: NWS Daily Summary

Daily Weather History Graph

Daily Weather History Graph

Search for Another Location

Airport or City:

Astronomy

Nov. 26, 2011 Rise Set
Actual Time 7:17 AM CST 4:46 PM CST
Civil Twilight 6:46 AM CST 5:16 PM CST
Nautical Twilight 6:11 AM CST 5:51 PM CST
Astronomical Twilight 5:38 AM CST 6:24 PM CST
Moon 8:49 AM CST (11/26) 6:16 PM CST (11/26)
Length of Visible Light 10h 30m
Length of Day
9h 28m
Waxing Crescent, 3% of the Moon is Illuminated
Nov 26
Waxing Crescent
Dec 2
First Quarter
Dec 10
Full
Dec 17
Last Quarter
Dec 24
New

Hourly Weather History & Observations

Time (CST) Temp. Windchill Dew Point Humidity Pressure Visibility Wind Dir Wind Speed Gust Speed Precip Events Conditions
12:53 AM 52.0 °F - 50.0 °F 93% 29.71 in 4.0 mi SSW 9.2 mph - 0.05 in Rain Light Rain
1:46 AM 51.8 °F - 51.8 °F 100% 29.70 in 4.0 mi SSW 8.1 mph - 0.02 in Rain Light Rain
1:53 AM 52.0 °F - 51.1 °F 97% 29.70 in 4.0 mi South 8.1 mph - 0.02 in Rain Light Rain
2:48 AM 51.8 °F - 51.8 °F 100% 29.71 in 5.0 mi SW 9.2 mph - 0.02 in Rain Light Rain
2:49 AM 52.0 °F - 51.1 °F 97% 29.71 in 5.0 mi SW 9.2 mph - 0.02 in Rain Light Rain
3:25 AM 51.8 °F - 51.8 °F 100% 29.71 in 5.0 mi SSW 9.2 mph - N/A   Overcast
3:51 AM 51.8 °F - 51.8 °F 100% 29.72 in 5.0 mi SW 10.4 mph - N/A   Overcast
3:53 AM 52.0 °F - 51.1 °F 97% 29.72 in 5.0 mi SW 10.4 mph - N/A   Overcast
4:53 AM 52.0 °F - 50.0 °F 93% 29.72 in 7.0 mi West 13.8 mph - 0.00 in Rain Light Rain
5:16 AM 50.0 °F - 48.2 °F 94% 29.74 in 10.0 mi West 13.8 mph - N/A   Overcast
5:35 AM 46.4 °F 39.0 °F 44.6 °F 93% 29.76 in 10.0 mi WNW 19.6 mph 25.3 mph 0.01 in   Overcast
5:53 AM 43.0 °F 34.8 °F 39.9 °F 89% 29.79 in 10.0 mi WNW 18.4 mph 24.2 mph 0.01 in   Overcast
6:18 AM 41.0 °F 32.8 °F 37.4 °F 87% 29.80 in 9.0 mi WNW 16.1 mph 26.5 mph N/A   Overcast
6:53 AM 39.9 °F 31.8 °F 37.0 °F 89% 29.83 in 10.0 mi WNW 15.0 mph 21.9 mph N/A   Overcast
7:53 AM 39.9 °F 32.5 °F 37.0 °F 89% 29.85 in 6.0 mi WNW 12.7 mph - N/A   Overcast
8:53 AM 42.1 °F 35.2 °F 37.9 °F 85% 29.87 in 6.0 mi NW 12.7 mph - N/A   Overcast
9:42 AM 41.0 °F 33.1 °F 37.4 °F 87% 29.87 in 7.0 mi NW 15.0 mph - N/A   Overcast
9:53 AM 41.0 °F 32.8 °F 37.0 °F 86% 29.88 in 8.0 mi NW 16.1 mph 24.2 mph N/A   Overcast
10:08 AM 41.0 °F 32.8 °F 37.4 °F 87% 29.90 in 9.0 mi NW 16.1 mph 24.2 mph N/A   Overcast
10:44 AM 39.2 °F 28.5 °F 35.6 °F 87% 29.92 in 10.0 mi NW 24.2 mph 34.5 mph N/A   Overcast
10:53 AM 39.9 °F 30.0 °F 36.0 °F 86% 29.93 in 10.0 mi NW 21.9 mph 32.2 mph N/A   Overcast
11:53 AM 39.9 °F 30.8 °F 36.0 °F 86% 29.91 in 10.0 mi NW 18.4 mph 31.1 mph N/A   Overcast
12:53 PM 39.9 °F 30.5 °F 36.0 °F 86% 29.91 in 10.0 mi NW 19.6 mph 29.9 mph N/A   Overcast
1:45 PM 39.2 °F 28.7 °F 35.6 °F 87% 29.91 in 10.0 mi NW 23.0 mph 32.2 mph N/A   Overcast
1:53 PM 39.9 °F 30.0 °F 34.0 °F 79% 29.92 in 10.0 mi NNW 21.9 mph 32.2 mph N/A   Overcast
2:53 PM 39.9 °F 31.4 °F 34.0 °F 79% 29.96 in 10.0 mi NW 16.1 mph 25.3 mph N/A   Overcast
3:53 PM 41.0 °F 30.7 °F 33.1 °F 73% 29.98 in 10.0 mi NNW 25.3 mph 40.3 mph N/A   Overcast
4:53 PM 39.0 °F 28.3 °F 33.1 °F 79% 30.00 in 10.0 mi NW 24.2 mph 34.5 mph N/A   Overcast
7:53 PM 37.0 °F 25.4 °F 30.0 °F 76% 30.07 in 10.0 mi NW 25.3 mph 36.8 mph N/A   Overcast
8:53 PM 37.9 °F 27.9 °F 30.9 °F 76% 30.07 in 10.0 mi NW 19.6 mph 38.0 mph N/A   Overcast
10:53 PM 37.0 °F 25.6 °F 30.0 °F 76% 30.08 in 10.0 mi NNW 24.2 mph 40.3 mph N/A   Overcast
11:53 PM 37.0 °F 25.9 °F 28.9 °F 73% 30.10 in 10.0 mi NNW 23.0 mph 39.1 mph N/A   Overcast